EW0482 Weather Reports


Display with metric or nautical units.
time (UTC)temp
F
wind
direction
speed
MPH
gust
MPH
rain 1hr
in
rain 24hr
in
rain mn
in
humidity
%
barometer
mb
20260831124514 67 247 0.0 0.0 0.00 0.00 0.00 86 1001.3
20260831123013 67 247 0.0 0.0 0.00 0.00 0.00 86 1001.2
20260831121512 67 247 0.0 0.0 0.00 0.00 0.00 86 1001.2
20260831120018 67 247 0.0 0.0 0.00 0.00 0.00 86 1001.2
20260831114511 67 247 0.0 0.0 0.00 0.00 0.00 85 1001.2
20260831113010 68 247 0.0 0.0 0.00 0.00 0.00 85 1001.2
20260831111510 67 247 0.0 0.0 0.00 0.00 0.00 84 1001.3
20260831110008 67 247 0.0 0.0 0.00 0.00 0.00 84 1001.3
20260831104509 67 247 0.0 0.0 0.00 0.00 0.00 83 1001.3
20260831103012 68 247 0.0 0.0 0.00 0.00 0.00 83 1001.4
20260831101508 68 246 0.0 0.0 0.00 0.00 0.00 83 1001.4
20260831100004 68 246 0.0 0.0 0.00 0.00 0.00 83 1001.4
20260831094507 68 246 0.0 0.0 0.00 0.00 0.00 82 1001.3
20260831093149 69 246 0.0 0.0 0.00 0.00 0.00 81 1001.3
20260831091558 69 246 0.0 0.0 0.00 0.00 0.00 81 1001.2
20260831090058 70 246 0.0 0.0 0.00 0.00 0.00 80 1001.3
20260831084644 71 246 0.0 0.0 0.00 0.00 0.00 78 1001.3
20260831083106 71 246 0.0 0.0 0.00 0.00 0.00 76 1001.3
20260831081555 71 246 0.0 1.0 0.00 0.00 0.00 76 1001.3
20260831080116 71 248 0.0 0.0 0.00 0.00 0.00 76 1001.3
20260831074552 70 250 0.0 0.0 0.00 0.00 0.00 79 1001.3
20260831073049 70 250 0.0 0.0 0.00 0.00 0.00 79 1001.1
20260831071550 70 250 0.0 0.0 0.00 0.00 0.00 79 1001.1
20260831070046 70 250 0.0 0.0 0.00 0.00 0.00 78 1001.0
20260831064553 70 250 0.0 0.0 0.00 0.00 0.00 77 1000.9
20260831063101 70 251 0.0 0.0 0.00 0.00 0.00 78 1001.0
20260831061543 70 251 0.0 0.0 0.00 0.00 0.00 78 1001.1
20260831060043 71 251 0.0 0.0 0.00 0.00 0.00 79 1001.0
20260831054542 71 251 0.0 0.0 0.00 0.00 0.00 78 1000.9
20260831053053 71 251 0.0 2.0 0.00 0.00 0.00 78 1001.0
20260831051543 72 249 0.0 2.0 0.00 0.00 0.00 77 1000.9
20260831050041 72 249 0.0 5.0 0.00 0.00 0.00 77 1001.0
20260831044541 72 241 0.0 3.0 0.00 0.00 0.00 76 1000.9
20260831043048 72 210 0.0 2.0 0.00 0.00 0.00 75 1000.8
20260831041548 72 246 0.0 4.0 0.00 0.00 0.00 75 1000.7
20260831040042 72 244 0.0 4.0 0.00 0.00 0.00 74 1000.5
20260831034539 73 243 0.0 2.0 0.00 0.00 0.00 74 1000.3
20260831033043 72 254 0.0 4.0 0.00 0.00 0.00 76 1000.1
20260831031536 73 252 0.0 2.0 0.00 0.00 0.00 76 999.9
20260831030046 73 250 0.0 5.0 0.00 0.00 0.00 76 999.9
20260831024543 74 244 0.0 2.0 0.00 0.00 0.00 74 999.7
20260831023035 75 243 0.0 3.0 0.00 0.00 0.00 72 999.7
20260831021534 75 249 0.0 2.0 0.00 0.00 0.00 72 999.6
20260831020034 76 242 0.0 1.0 0.00 0.00 0.00 72 999.5
20260831014535 76 230 0.0 5.0 0.00 0.00 0.00 73 999.5
20260831013033 76 243 0.0 6.0 0.00 0.00 0.00 74 999.5
20260831011531 77 241 0.0 4.0 0.00 0.00 0.00 74 999.6
20260831010032 78 240 0.0 4.0 0.00 0.00 0.00 73 999.5
20260831004536 78 244 0.0 9.0 0.00 0.00 0.00 74 999.5
20260831003032 80 249 1.0 8.0 0.00 0.00 0.00 72 999.4
20260831001531 81 242 2.0 11.0 0.00 0.00 0.00 69 999.4
20260831000033 82 227 0.0 7.0 0.00 0.00 0.00 67 999.5
20260830234530 82 242 1.0 9.0 0.00 0.00 0.00 66 999.5
20260830233029 83 183 0.0 6.0 0.00 0.00 0.00 65 999.5
20260830231527 83 226 0.0 11.0 0.00 0.00 0.00 65 999.5
20260830230027 84 243 1.0 11.0 0.00 0.00 0.00 65 999.5
20260830224526 83 178 1.0 7.0 0.00 0.00 0.00 66 999.8
20260830223031 83 248 0.0 9.0 0.00 0.00 0.00 66 999.8
20260830221523 82 243 1.0 10.0 0.00 0.00 0.00 67 1000.0
20260830220030 82 250 0.0 8.0 0.00 0.00 0.00 67 1000.3
20260830214524 83 240 4.0 8.0 0.00 0.00 0.00 63 1000.4
20260830213021 84 246 0.0 9.0 0.00 0.00 0.00 63 1000.6
20260830211521 83 244 0.0 9.0 0.00 0.00 0.00 65 1000.8
20260830210020 84 250 3.0 10.0 0.00 0.00 0.00 64 1000.9
20260830204520 83 230 2.0 9.0 0.00 0.00 0.00 66 1000.9
20260830203020 83 234 4.0 11.0 0.00 0.00 0.00 66 1001.0
20260830201518 84 261 1.0 8.0 0.00 0.00 0.00 66 1001.0
20260830200019 85 223 1.0 10.0 0.00 0.00 0.00 63 1001.0
20260830194518 84 245 1.0 9.0 0.00 0.00 0.00 63 1001.0
20260830193021 86 242 0.0 7.0 0.00 0.00 0.00 59 1001.0
20260830191516 86 177 0.0 6.0 0.00 0.00 0.00 58 1001.3
20260830190019 88 250 1.0 4.0 0.00 0.00 0.00 55 1001.3
20260830184515 88 200 0.0 2.0 0.00 0.00 0.00 57 1001.3
20260830183029 89 101 0.0 1.0 0.00 0.00 0.00 55 1001.2
20260830181513 87 82 0.0 1.0 0.00 0.00 0.00 55 1001.4
20260830180008 86 77 0.0 2.0 0.00 0.00 0.00 56 1001.4
20260830174511 85 73 0.0 3.0 0.00 0.00 0.00 58 1001.4
20260830173003 85 186 0.0 2.0 0.00 0.00 0.00 59 1001.4
20260830171606 83 80 0.0 2.0 0.00 0.00 0.00 62 1001.4
20260830170058 82 90 0.0 2.0 0.00 0.00 0.00 64 1001.3
20260830164559 83 86 0.0 2.0 0.00 0.00 0.00 63 1001.3
20260830163100 82 85 0.0 2.0 0.00 0.00 0.00 67 1001.3
20260830161552 80 79 0.0 2.0 0.00 0.00 0.00 69 1001.3
20260830154546 78 88 0.0 3.0 0.00 0.00 0.00 74 1001.3
20260830153042 77 82 0.0 1.0 0.00 0.00 0.00 75 1001.4
20260830151545 76 71 0.0 3.0 0.00 0.00 0.00 77 1001.4
20260830150035 75 154 0.0 2.0 0.00 0.00 0.00 80 1001.4
20260830144533 73 249 0.0 1.0 0.00 0.00 0.00 83 1001.5
20260830143039 72 248 0.0 1.0 0.00 0.00 0.00 86 1001.3
20260830141535 70 248 0.0 0.0 0.00 0.00 0.00 86 1001.2
20260830140028 69 248 0.0 0.0 0.00 0.00 0.00 86 1001.1
20260830134534 69 248 0.0 0.0 0.00 0.00 0.00 86 1000.8
20260830133025 69 248 0.0 0.0 0.00 0.00 0.00 86 1000.7
20260830131528 69 248 0.0 0.0 0.00 0.00 0.00 86 1000.4
20260830130022 69 248 0.0 0.0 0.00 0.00 0.00 86 1000.4